Flag for Canada Weather past 2 weeks in Rainy River, Ontario, Canada

Now
-8 °F

Sunny.


Feels Like: -25 °F
Forecast: -15 / -4 °F
Wind: 9 mph from Northwest

Location: Baudette International Airport

Current Time: Feb 1, 2015 at 1:49:09 PM

Latest Report: Feb 1, 2015 at 12:53 PM


Visibility: 10 mi

Pressure: 30.56 "Hg

Humidity: 61%

Dew point: -18 °F

Location of Rainy RiverLocation

Historic Weather in Rainy River — Graph

°F

Rainy River temperature yesterday

Maximum temperature yesterday: 15 °F (at 12:53 AM)
Minimum temperature yesterday: -12 °F (at 11:53 PM)
Average temperature yesterday: 1 °F

Past Weeks' High & Low Weather Summary

 TemperatureHumidityPressure
High39 °F (Jan 23, 12:53 PM)96% (Jan 21, 2:53 AM)30.61 "Hg (Jan 21, 2:53 AM)
Low-17 °F (Feb 1, 5:53 AM)53% (Jan 24, 3:53 PM)29.44 "Hg (Jan 17, 12:53 PM)
Average19 °F79%30.04 "Hg
* Reported Jan 17 12:53 PM — Feb 1 12:53 PM, Rainy River, Weather by CustomWeather, © 2014

Note: Actual official high and low records may vary slightly from our data, if they occured in-between our weather recording intervals... More about our weather records

Advertising

Rainy River weather history for previous 24 hours

 ConditionsComfort  
Time TempWeatherWind HumidityBarometerVisibility
12:53 PM
Feb 1
-8 °FSunny.9 mph61%30.56 "Hg10 mi
11:53 AMN/ASunny.7 mphN/A30.58 "Hg10 mi
10:53 AM-13 °FSunny.5 mph70%30.60 "Hg10 mi
9:53 AM-16 °FSunny.6 mph74%30.61 "Hg10 mi
8:53 AM-17 °FSunny.8 mph77%30.61 "Hg10 mi
7:53 AM-17 °FSunny.7 mph77%30.61 "Hg10 mi
6:53 AM-17 °FClear.6 mph77%30.61 "Hg10 mi
5:53 AM-17 °FClear.6 mph77%30.61 "Hg10 mi
4:53 AM-16 °FClear.7 mph78%30.61 "Hg10 mi
3:53 AM-16 °FClear.6 mph78%30.60 "Hg10 mi
2:53 AM-15 °FClear.3 mph74%30.61 "Hg10 mi
1:53 AM-14 °FClear.6 mph74%30.60 "Hg10 mi
12:53 AM-13 °FClear.7 mph74%30.59 "Hg10 mi
11:53 PM
Jan 31
-12 °FClear.7 mph70%30.58 "Hg10 mi
10:53 PM-11 °FClear.6 mph70%30.58 "Hg10 mi
9:53 PMN/AClear.7 mphN/A30.56 "Hg10 mi
8:53 PM-9 °FClear.7 mph70%30.55 "Hg10 mi
7:53 PM-7 °FClear.9 mph68%30.55 "Hg10 mi
6:53 PM-6 °FClear.8 mph67%30.54 "Hg10 mi
5:53 PM-4 °FClear.8 mph65%30.52 "Hg10 mi
4:53 PM-2 °FSunny.10 mph62%30.50 "Hg10 mi
3:53 PM0 °FSunny.14 mph59%30.47 "Hg10 mi
2:53 PM0 °FSunny.13 mphN/A30.47 "Hg10 mi
1:53 PM1 °FSunny.14 mph62%30.47 "Hg10 mi
Weather by CustomWeather, © 2014

See weather overviewHow to use our weather pages